Date String (YYYY-MM-DD hh:mm:ss) UTC,Instrument flags,Ambient pressure (hPa),Sample flow (lpm),Bypass flow (lpm),Sample temperature (°C),Ambient temperature (°C),ASC tube jacket temperature (°C),LED temperature (°C),Box temperature (°C),Sample RH (%),Span deviation,Mass concentration (μg/m³),Mass concentration (μg/m³),Mass concentration (μg/m³)
DateTimeUTC,F1_M11,P_M11,Q1_M11,Q2_M11,T1_M11,T2_M11,T3_M11,T4_M11,T5_M11,U1_M11,ZSPAN_M11,X0_M11,X2_M11,X1_M11
2022-07-25 07:00:00,,0829.9,4.99,0.00,32.1,29.4,00.0,40.4,32.8,35.0,0001.1,0012.79,0008.45,0007.46
2022-07-25 07:01:00,,0829.8,5.01,0.00,32.0,29.4,00.0,40.4,32.8,35.0,0000.7,0012.61,0008.47,0007.51
2022-07-25 07:02:00,,0829.9,5.00,0.00,32.1,29.4,00.0,40.4,32.9,35.0,0000.5,0012.50,0008.50,0007.54
2022-07-25 07:03:00,,0829.9,4.99,0.00,32.3,29.4,00.0,40.4,33.0,34.7,0000.2,0012.58,0008.55,0007.58
2022-07-25 07:04:00,,0829.9,5.01,0.00,32.3,29.2,00.0,40.4,33.0,34.8,-000.0,0012.60,0008.60,0007.64
2022-07-25 07:05:00,,0829.9,4.99,0.00,32.4,28.4,00.0,40.3,32.9,34.7,0000.1,0012.59,0008.64,0007.69
2022-07-25 07:06:00,,0829.9,5.00,0.00,32.3,28.0,00.0,40.3,32.8,34.9,0000.3,0012.78,0008.70,0007.73
2022-07-25 07:07:00,,0829.8,5.00,0.00,32.2,27.9,00.0,40.3,32.6,35.2,0000.2,0012.66,0008.67,0007.75
2022-07-25 07:08:00,,0829.8,5.01,0.00,32.3,28.0,00.0,40.3,32.7,35.0,-000.3,0012.77,0008.68,0007.74
2022-07-25 07:09:00,,0829.8,5.00,0.00,32.5,28.1,00.0,40.3,32.8,34.7,-000.5,0012.81,0008.63,0007.68
2022-07-25 07:10:00,,0829.8,4.99,0.00,32.5,28.2,00.0,40.3,32.7,34.6,-000.4,0012.80,0008.60,0007.63
2022-07-25 07:11:00,,0829.8,5.01,0.00,32.5,28.4,00.0,40.3,32.7,34.7,-000.1,0012.73,0008.55,0007.59
2022-07-25 07:12:00,,0829.8,4.99,0.00,32.5,28.5,00.0,40.3,32.7,34.8,-000.0,0012.68,0008.49,0007.53
2022-07-25 07:13:00,,0829.7,5.01,0.00,32.4,28.6,00.0,40.4,32.7,34.8,-000.2,0012.64,0008.48,0007.49
2022-07-25 07:14:00,,0829.7,4.99,0.00,32.4,28.7,00.0,40.4,32.7,34.9,-000.1,0012.46,0008.42,0007.48
2022-07-25 07:15:00,,0829.6,5.00,0.00,32.4,28.8,00.0,40.4,32.7,35.1,0000.0,0012.49,0008.37,0007.44
2022-07-25 07:16:00,,0829.6,4.99,0.00,32.5,28.9,00.0,40.4,32.9,34.9,0000.3,0012.73,0008.32,0007.37
2022-07-25 07:17:00,,0829.7,5.01,0.00,32.6,29.0,00.0,40.5,32.9,34.4,0001.1,0012.52,0008.25,0007.31
2022-07-25 07:18:00,,0829.6,4.99,0.00,32.7,29.0,00.0,40.5,32.9,34.3,0001.3,0012.58,0008.25,0007.30
2022-07-25 07:19:00,,0829.6,5.00,0.00,32.7,29.1,00.0,40.5,32.9,34.4,0001.9,0012.51,0008.25,0007.32
2022-07-25 07:20:00,,0829.6,5.01,0.00,32.6,29.1,00.0,40.6,32.9,34.4,0001.6,0012.65,0008.33,0007.41
2022-07-25 07:21:00,,0829.6,5.00,0.00,32.6,29.2,00.0,40.6,32.9,34.5,0001.3,0012.80,0008.43,0007.50
2022-07-25 07:22:00,,0829.5,4.99,0.00,32.6,29.2,00.0,40.6,32.9,34.6,0001.3,0012.98,0008.55,0007.60
2022-07-25 07:23:00,,0829.5,5.01,0.00,32.5,29.3,00.0,40.6,32.9,34.8,0001.4,0013.18,0008.70,0007.71
2022-07-25 07:24:00,,0829.5,4.99,0.00,32.5,29.3,00.0,40.6,33.0,34.8,0001.3,0013.28,0008.81,0007.81
2022-07-25 07:25:00,,0829.5,5.01,0.00,32.4,29.3,00.0,40.7,33.0,34.9,0001.1,0013.47,0008.91,0007.88
2022-07-25 07:26:00,,0829.5,5.01,0.00,32.4,29.4,00.0,40.7,33.0,35.0,0001.1,0013.60,0009.04,0007.96
2022-07-25 07:27:00,,0829.5,5.01,0.00,32.4,29.4,00.0,40.7,33.0,35.1,0001.0,0013.43,0009.13,0008.08
2022-07-25 07:28:00,,0829.5,5.00,0.00,32.6,28.8,00.0,40.6,33.1,34.8,-000.1,0013.63,0009.23,0008.17
2022-07-25 07:29:00,,0829.5,4.99,0.00,32.7,27.9,00.0,40.5,33.0,34.4,-000.4,0013.67,0009.30,0008.22
2022-07-25 07:30:00,,0829.3,5.00,0.00,32.7,27.5,00.0,40.4,32.8,34.4,-000.8,0013.76,0009.38,0008.27
2022-07-25 07:31:00,,0829.4,5.00,0.00,32.5,27.4,00.0,40.4,32.6,34.8,-000.7,0013.68,0009.38,0008.28
2022-07-25 07:32:00,,0829.2,4.99,0.00,32.4,27.5,00.0,40.5,32.5,35.1,-000.7,0013.85,0009.38,0008.28
2022-07-25 07:33:00,,0829.2,5.01,0.00,32.4,27.6,00.0,40.4,32.6,34.9,-000.6,0014.07,0009.37,0008.25
2022-07-25 07:34:00,,0829.2,5.00,0.00,32.5,27.8,00.0,40.4,32.6,34.7,-000.8,0014.04,0009.28,0008.17
2022-07-25 07:35:00,,0829.3,4.99,0.00,32.5,28.0,00.0,40.4,32.6,34.6,-000.3,0013.87,0009.17,0008.09
2022-07-25 07:36:00,,0829.3,5.01,0.00,32.4,28.1,00.0,40.4,32.5,34.6,-000.2,0013.79,0009.10,0008.03
2022-07-25 07:37:00,,0829.2,4.99,0.00,32.4,28.3,00.0,40.4,32.5,34.6,-000.5,0013.73,0009.06,0007.97
2022-07-25 07:38:00,,0829.2,5.01,0.00,32.3,28.4,00.0,40.4,32.6,34.6,-000.6,0013.63,0009.00,0007.91
2022-07-25 07:39:00,,0829.2,5.00,0.00,32.3,28.5,00.0,40.4,32.6,34.7,-000.7,0013.25,0008.87,0007.86
2022-07-25 07:40:00,,0829.2,4.99,0.00,32.2,28.6,00.0,40.4,32.6,34.8,-000.1,0013.17,0008.82,0007.83
2022-07-25 07:41:00,,0829.2,5.01,0.00,32.1,28.7,00.0,40.4,32.6,34.9,0000.6,0013.00,0008.76,0007.81
2022-07-25 07:42:00,,0829.1,4.99,0.00,32.1,28.8,00.0,40.4,32.6,34.9,0000.8,0012.94,0008.76,0007.79
2022-07-25 07:43:00,,0829.1,4.99,0.00,32.0,28.8,00.0,40.4,32.6,35.0,0001.3,0012.93,0008.74,0007.77
2022-07-25 07:44:00,,0829.1,5.01,0.00,32.0,28.9,00.0,40.4,32.6,35.1,0001.4,0012.94,0008.70,0007.76
2022-07-25 07:45:00,,0829.1,5.00,0.00,32.2,28.9,00.0,40.4,32.8,34.7,0001.7,0013.30,0008.70,0007.80
2022-07-25 07:46:00,,0829.1,5.00,0.00,32.3,29.0,00.0,40.4,32.8,34.5,0002.0,0013.37,0008.73,0007.81
2022-07-25 07:47:00,,0829.1,5.00,0.00,32.3,29.0,00.0,40.4,32.8,34.2,0001.5,0013.43,0008.73,0007.79
2022-07-25 07:48:00,,0829.1,5.00,0.00,32.3,29.1,00.0,40.4,32.8,34.1,0001.5,0013.28,0008.65,0007.76
2022-07-25 07:49:00,,0829.0,5.01,0.00,32.3,29.1,00.0,40.4,32.8,33.9,0001.3,0013.16,0008.55,0007.70
2022-07-25 07:50:00,,0829.0,4.99,0.00,32.2,29.2,00.0,40.4,32.8,33.9,0001.7,0013.29,0008.56,0007.66
2022-07-25 07:51:00,,0828.9,4.99,0.00,32.2,29.2,00.0,40.4,32.8,33.9,0001.4,0013.36,0008.53,0007.60
2022-07-25 07:52:00,,0828.9,5.00,0.00,32.2,29.2,00.0,40.5,32.8,33.9,-000.3,0013.39,0008.51,0007.57
2022-07-25 07:53:00,,0828.9,5.00,0.00,32.1,29.3,00.0,40.5,32.8,33.8,-000.8,0013.33,0008.45,0007.51
2022-07-25 07:54:00,,0829.2,4.99,0.00,32.1,29.3,00.0,40.5,32.8,33.6,-001.0,0013.12,0008.35,0007.42
2022-07-25 07:55:00,,0829.0,4.99,0.00,32.0,29.3,00.0,40.5,32.8,33.6,-001.3,0012.68,0008.24,0007.31
2022-07-25 07:56:00,,0828.8,5.01,0.00,32.0,29.4,00.0,40.4,32.8,33.7,-001.3,0012.33,0008.19,0007.22
2022-07-25 07:57:00,,0829.1,5.00,0.00,32.0,29.3,00.0,40.4,32.9,33.7,-001.2,0012.14,0008.08,0007.13
2022-07-25 07:58:00,,0828.8,4.99,0.00,31.9,28.6,00.0,40.3,32.8,33.5,-000.8,0012.05,0008.02,0007.07
2022-07-25 07:59:00,,0828.9,5.00,0.00,31.9,28.1,00.0,40.3,32.7,33.6,-000.3,0012.07,0008.00,0007.03
